Tracking 27422 objects as of 30-May-2023
HD Live streaming from Space Station
objects crossing your sky now

CZ-2D DEB

Track CZ-2D DEB now!
10-day predictions


NORAD ID: 38323
Int'l Code: 2008-056J
Perigee: 778.5 km
Apogee: 1,069.3 km
Inclination: 98.4 °
Period: 103.3 minutes
Semi major axis: 7294 km
RCS: 0.0014 m2 (small)
Launch date: November 5, 2008
Source: People's Republic of China (PRC)
Launch site: Jiuquan Satellite Launch Center, China (JSC)

Note: This is SATELLITE DEBRIS
Your satellite tracking list
Your tracking list is empty




NASA's NSSDC Master Catalog

Two Line Element Set (TLE):
1 38323U 08056J   23149.80834583  .00000517  00000-0  36162-3 0  9990
2 38323  98.4247 153.5424 0199323 241.9485 245.0900 13.93386930735694
Source of the keplerian elements: AFSPC